Regional Weather Roundup
Issued by NWS

Home | Current Version | Previous Version | Graphics & Text | Print | Product List | Glossary On
Versions: 1 2 3 4 5 6 7 8 9 10 11 12 13 14 15 16 17 18 19 20 21 22 23 24 25 26 27 28 29 30 31 32 33 34 35 36 37 38 39 40 41 42 43 44 45 46 47 48 49 50
000
ASUS44 KMEG 200310
RWRTN
TENNESSEE HOURLY STATE WEATHER ROUNDUP
NATIONAL WEATHER SERVICE MEMPHIS TN
900 PM CST SUN NOV 19 2017

TNZ002-004-019-021-049-052-054-088>092-200400-
WEST TENNESSEE

CITY           SKY/WX    TMP DP  RH WIND       PRES   REMARKS
MEMPHIS INTL   CLEAR     40  27  59 CALM      30.24S
NWS MEMPHIS      N/A     33 N/A N/A MISG        N/A
JACKSON        CLEAR     28  26  92 CALM      30.26R
DYERSBURG      CLEAR     33  27  78 CALM      30.27R
COVINGTON      CLEAR     28  28 100 CALM      30.26R
UNION CITY     CLEAR     32  25  74 CALM      30.25R
BOLIVAR        CLEAR     28  27  93 CALM      30.24R
HUNTINGDON     CLEAR     30  28  93 CALM      30.24R
LEXINGTON      CLEAR     30  28  93 CALM      30.25R
SELMER         CLEAR     32  27  80 CALM      30.23S
SAVANNAH       CLEAR     30  28  93 CALM      30.24R
$$

TNZ008-025-027-028-033-062-065-066-200400-
NORTH MIDDLE TENNESSEE

CITY           SKY/WX    TMP DP  RH WIND       PRES   REMARKS
NASHVILLE      CLEAR     34  23  64 CALM      30.24R
PORTLAND       CLEAR     30  25  80 CALM      30.22R
CLARKSVILLE    CLEAR     32  24  72 CALM      30.25R
SMYRNA         CLEAR     31  27  85 CALM      30.25R
COOKEVILLE     CLEAR     27  25  93 CALM      30.20R
GALLATIN       CLEAR     32  27  80 CALM      30.26R
CROSSVILLE     CLEAR     28  24  85 CALM      30.17F
$$

TNZ061-075-076-078-094-096-097-200400-
SOUTH MIDDLE TENNESSEE

CITY           SKY/WX    TMP DP  RH WIND       PRES   REMARKS
FAYETTEVILLE   CLEAR     37  25  60 CALM      30.20S
TULLAHOMA      CLEAR     34  23  64 CALM      30.21R
WINCHESTER     CLEAR     32  23  69 CALM      30.22R
MCMINNVILLE    CLEAR     34  23  64 CALM      30.21R
COLUMBIA       CLEAR     32  28  86 CALM      30.22R
SHELBYVILLE    CLEAR     32  27  80 CALM      30.22R
$$

TNZ017-018-042-046-047-200400-
NORTHEAST TENNESSEE

CITY           SKY/WX    TMP DP  RH WIND       PRES   REMARKS
TRI CITIES     PTCLDY    35  27  72 W3        30.15R
ELIZABETHTON   CLEAR     36  27  69 W6        30.15S WCI  31
$$

TNZ012-013-036-069-073-074-200400-
CENTRAL EAST TENNESSEE

CITY           SKY/WX    TMP DP  RH WIND       PRES   REMARKS
KNOXVILLE      CLEAR     36  31  82 CALM      30.19S
OAK RIDGE      CLEAR     33  30  88 CALM      30.21S
DOWNTOWN KNOXV CLEAR     34  32  93 CALM      30.21S
GATLINBURG     CLEAR     34  30  86 CALM      30.19F
MORRISTOWN     PTCLDY    37  27  65 NW5       30.18S WCI  34
JACKSBORO      PTCLDY    30  28  93 CALM      30.23R
$$

TNZ083-085-099-200400-
SOUTHEAST TENNESSEE

CITY           SKY/WX    TMP DP  RH WIND       PRES   REMARKS
CHATTANOOGA    CLEAR     39  25  57 N7        30.22R WCI  34
$$

SKY/WX REPORTED AS FAIR MEANS FEW OR NO CLOUDS BELOW
12 THOUSAND FEET.





USA.gov is the U.S. government's official web portal to all federal, state and local government web resources and services.